Weather History for Dayton, OH

Change the Weather History Date:

Saturday, March 2, 2013

  Actual Average Record
Temperature  
Mean Temperature 27 °F 35 °F  
Max Temperature 28 °F 44 °F 73 °F (1992)
Min Temperature 25 °F 27 °F -7 °F (1980)
Degree Days  
Heating Degree Days 38 30  
Month to date heating degree days 72 60  
Since 1 July heating degree days 4122 4335  
Cooling Degree Days 0 0  
Month to date cooling degree days 0 0  
Year to date cooling degree days 0 0  
Moisture  
Dew Point 19 °F    
Average Humidity 75    
Maximum Humidity 81    
Minimum Humidity 68    
Precipitation  
Precipitation T in 0.08 in 1.01 in (1945)
Month to date precipitation T 0.17  
Year to date precipitation 4.39 5.12  
Snow  
Snow 0.20 in 0.10 in 2.50 in (1898)
Month to date snowfall 0.2 0.3  
Since 1 July snowfall 21.9 19.6  
Snow Depth T in    
Sea Level Pressure  
Sea Level Pressure 30.08 in    
Wind  
Wind Speed 9 mph (NNW)    
Max Wind Speed 14 mph    
Max Gust Speed 17 mph    
Visibility 8 miles    
Events Snow    
T = Trace of Precipitation, MM = Missing Value Source: NWS Daily Summary

Daily Weather History Graph

Daily Weather History Graph

Search for Another Location

Airport:

Trip Planner

Search our weather history database for the weather conditions in past years. The results will help you decide how hot, cold, wet, or windy it might be!

Date:

Astronomy

Mar. 02, 2013 Rise Set
Actual Time 7:08 AM EST 6:30 PM EST
Civil Twilight 6:41 AM EST 6:57 PM EST
Nautical Twilight 6:09 AM EST 7:28 PM EST
Astronomical Twilight 5:38 AM EST 8:00 PM EST
Moon No Moon Rise 9:36 AM EST
Length of Visible Light 12h 16m
Length of Day
11h 21m
Waning Gibbous, 74% of the Moon is Illuminated
Mar 2
Waning Gibbous
Mar 4
Last Quarter
Mar 11
New
Mar 19
First Quarter
Mar 27
Full

Hourly Weather History & Observations

Time (EST) Temp. Windchill Dew Point Humidity Pressure Visibility Wind Dir Wind Speed Gust Speed Precip Events Conditions
12:56 AM 27.0 °F 18.0 °F 19.9 °F 75% 30.07 in 9.0 mi North 9.2 mph - 0.00 in Snow Light Snow
1:56 AM 27.0 °F 17.3 °F 19.0 °F 72% 30.08 in 10.0 mi North 10.4 mph - 0.00 in   Overcast
2:56 AM 26.1 °F 18.4 °F 19.9 °F 78% 30.07 in 10.0 mi North 6.9 mph - N/A   Overcast
3:56 AM 26.1 °F 15.6 °F 19.9 °F 78% 30.06 in 10.0 mi North 11.5 mph - N/A   Overcast
4:56 AM 26.1 °F 16.2 °F 18.0 °F 71% 30.05 in 10.0 mi North 10.4 mph - N/A   Overcast
5:56 AM 26.1 °F 17.6 °F 19.0 °F 75% 30.06 in 8.0 mi NNW 8.1 mph - N/A   Overcast
7:56 AM 26.1 °F 16.2 °F 19.0 °F 75% 30.08 in 8.0 mi North 10.4 mph - 0.00 in Snow Light Snow
8:56 AM 25.0 °F 15.5 °F 19.0 °F 78% 30.09 in 4.0 mi North 9.2 mph - 0.00 in Snow Light Snow
9:40 AM 24.8 °F 14.6 °F 21.2 °F 86% 30.05 in 2.5 mi North 10.4 mph - 0.00 in Snow Light Snow
9:56 AM 25.0 °F 14.8 °F 19.9 °F 81% 30.09 in 2.5 mi NNE 10.4 mph - 0.00 in Snow Light Snow
10:33 AM 24.8 °F 16.1 °F 19.4 °F 80% 30.06 in 3.0 mi North 8.1 mph - 0.00 in Snow Light Snow
10:56 AM 26.1 °F 16.8 °F 19.9 °F 78% 30.09 in 5.0 mi North 9.2 mph - 0.00 in Snow Light Snow
11:56 AM 26.6 °F 17.5 °F 21.2 °F 80% 30.06 in 3.0 mi NNW 9.2 mph - N/A Snow Light Snow
12:56 PM 26.1 °F 16.8 °F 19.9 °F 78% 30.08 in 7.0 mi NNW 9.2 mph - 0.00 in   Overcast
1:56 PM 27.0 °F 18.0 °F 19.0 °F 72% 30.07 in 10.0 mi NNW 9.2 mph - 0.00 in Snow Light Snow
2:56 PM 27.0 °F 17.3 °F 19.9 °F 75% 30.06 in 9.0 mi NNW 10.4 mph - 0.00 in Snow Light Snow
3:56 PM 27.0 °F 15.6 °F 19.9 °F 75% 30.07 in 9.0 mi NNW 13.8 mph - 0.00 in Snow Light Snow
4:56 PM 27.0 °F 16.7 °F 19.0 °F 72% 30.07 in 9.0 mi NNW 11.5 mph - 0.00 in Snow Light Snow
5:56 PM 27.0 °F 16.1 °F 19.0 °F 72% 30.09 in 9.0 mi North 12.7 mph - 0.00 in Snow Light Snow
6:43 PM 26.6 °F 20.0 °F 17.6 °F 69% 30.05 in 9.0 mi North 5.8 mph - 0.00 in   Overcast
6:56 PM 27.0 °F 19.5 °F 18.0 °F 69% 30.09 in 10.0 mi NNW 6.9 mph - 0.00 in   Overcast
7:56 PM 27.0 °F 20.5 °F 19.0 °F 72% 30.09 in 10.0 mi NNW 5.8 mph - N/A   Overcast
8:56 PM 27.0 °F 21.6 °F 19.0 °F 72% 30.10 in 10.0 mi NNW 4.6 mph - N/A   Overcast
9:56 PM 27.0 °F 20.5 °F 19.0 °F 72% 30.09 in 10.0 mi North 5.8 mph - N/A   Overcast
10:56 PM 26.1 °F 21.9 °F 19.0 °F 75% 30.09 in 10.0 mi NW 3.5 mph - N/A   Overcast
11:56 PM 26.1 °F 19.4 °F 19.0 °F 75% 30.09 in 9.0 mi North 5.8 mph - 0.00 in Snow Light Snow